Regional Weather Roundup
Issued by NWS

Home | Current Version | Previous Version | Text Only | Print | Product List | Glossary Off
Versions: 1 2 3 4 5 6 7 8 9 10 11 12 13 14 15 16 17 18 19 20 21 22 23 24 25 26 27 28 29 30 31 32 33 34 35 36 37 38 39 40 41 42 43 44 45 46 47 48 49

000
ASUS45 KBOU 251107
RWRCO

WEATHER ROUNDUP FOR COLORADO
NATIONAL WEATHER SERVICE DENVER/BOULDER CO
500 AM MDT TUE APR 25 2017

NOTE: "FAIR" INDICATES FEW OR NO CLOUDS BELOW 12000 FEET WITH NO
SIGNIFICANT WEATHER AND/OR OBSTRUCTIONS TO VISIBILITY.

COZ001>005-013-030-031-251200-
...NORTHWEST COLORADO...

CITY           SKY/WX    TMP DP  RH WIND       PRES   REMARKS
CRAIG          MOCLDY    32  28  85 SW7       29.72F WCI  26
HAYDEN         FAIR      32  28  86 S5        29.72S WCI  27
MEEKER         CLOUDY    34  33  96 CALM      29.71S
MOUNT WERNER   NOT AVBL
STEAMBOAT SPGS CLOUDY    32  31  95 CALM      29.72S
WALDEN           N/A     27  25  93 S5        29.69S WCI  21
$$

COZ006>008-011-251200-
...WEST CENTRAL VALLEYS...

CITY           SKY/WX    TMP DP  RH WIND       PRES   REMARKS
GRAND JUNCTION FAIR      42  38  85 E5        29.66F
MONTROSE       CLOUDY    42  35  76 SE10      29.71F
EAGLE          CLOUDY    36  32  85 NE3       29.74S
RIFLE          MOCLDY    38  35  89 CALM      29.71F
DELTA          MOCLDY    46  35  63 N5        29.69F
NUCLA          MOCLDY    45  27  49 E6        29.70F
$$

COZ017>023-064>068-251200-
...SOUTHWEST COLORADO...

CITY           SKY/WX    TMP DP  RH WIND       PRES   REMARKS
DURANGO        MOCLDY    44  28  53 W5        29.64F
CORTEZ         CLOUDY    47  29  49 NW5       29.67S
PAGOSA SPRINGS CLOUDY    40  32  74 NE3       29.69F
TELLURIDE      LGT SNOW  33  31  92 CALM      29.76F
WOLF CREEK PAS CLOUDY    27  25  93 S10       29.84F WCI  17
$$

COZ009-010-012-014-032>034-037-058>063-251200-
...CENTRAL COLORADO...

CITY           SKY/WX    TMP DP  RH WIND       PRES   REMARKS
ASPEN          MOCLDY    30  29  96 CALM      29.71F
BUENA VISTA    FAIR      33  28  83 NW9       29.70F WCI  25
COPPER MTN     LGT SNOW  23  18  80 MISG      29.74F
BERTHOUD PASS  CLOUDY    14   3  62 MISG      29.69F
COTTONWOOD PAS FLURRIES  32  27  80 NW6       29.72F WCI  26
GUNNISON       MIX PCPN  34  30  85 E3        29.74F
KREMMLING      FAIR      36  32  87 W3        29.72F
LEADVILLE      MOCLDY    24  18  77 SE3       29.72F
MONARCH PASS   CLOUDY    23  21  93 MISG      29.85S
SALIDA         MOCLDY    36  33  92 W3        29.77F
SUNLIGHT       CLOUDY    21  21 100 W5        29.79F WCI  15
WILKERSON PASS FAIR      21  19  93 W8        29.74F WCI  12
$$

COZ069>075-251200-
...SAN LUIS VALLEY/SANGRE DE CRISTO MOUNTAINS...

CITY           SKY/WX    TMP DP  RH WIND       PRES   REMARKS
ALAMOSA        CLOUDY    38  25  59 N6        29.67R
LA VETA PASS   MOCLDY    36  23  60 S21G28    29.84S
SAGUACHE       MOCLDY    36  30  80 NW13      29.69F
$$

COZ035-036-038>040-251200-
...NORTHERN COLORADO FRONT RANGE...

CITY           SKY/WX    TMP DP  RH WIND       PRES   REMARKS
DENVER INTL AP FAIR      37  35  92 S6        29.58S
DMNS CITY PARK   N/A     44  37  76 SE5G10    29.57F
AURORA         PTCLDY    42  40  95 SW3       29.58F
FRONT RANGE AP FAIR      41  39  93 CALM      29.59F
ERIE MUNI ARPT FAIR      40  39  94 SW6       29.56F
BOULDER MUN AP FAIR      41  41 100 S3        29.56F
CENTENNIAL     FAIR      40  37  89 W6        29.58F
BROOMFIELD     FAIR      37  36  93 W7        29.58F
FORT COLLINS   FAIR      41  39  93 CALM      29.56F
LONGMONT       FAIR      42  40  92 CALM      29.57F
$$

COZ041-046-047-076>085-087-088-251200-
...PIKES PEAK/PALMER DIVIDE AND SOUTHERN FOOTHILLS...

CITY           SKY/WX    TMP DP  RH WIND       PRES   REMARKS
COLO. SPRINGS  FAIR      47  26  44 NE9       29.57F
A. F. ACADEMY  FAIR      44  25  47 NW7       29.57F
SCHRIEVER AFB  FAIR      39  34  80 N15G24    29.57F
ELLICOTT       FAIR     N/A N/A N/A NE10      29.57S
FALCON         FAIR      35  33  94 N5        29.60F WCI  31
FORT CARSON    FAIR      47  26  44 E5        29.54F
LIMON          CLOUDY    41  39  93 N17       29.58F
MONUMENT HILL  FAIR      32  32 100 NW5       29.61F WCI  27
TRINIDAD       FAIR      53  25  33 W3        29.54R
$$

COZ042>045-048>051-090-091-251200-
...NORTHEAST COLORADO...

CITY           SKY/WX    TMP DP  RH WIND       PRES   REMARKS
GREELEY ARPT   FAIR      42  42 100 CALM      29.56F
AKRON          RAIN      42  39  89 NW10      29.59R
BURLINGTON     NOT AVBL
WRAY           NOT AVBL
STERLING       LGT RAIN  43  43 100 SE8       29.55F
HOLYOKE        RAIN      46  43  87 NW7       29.58S
FORT MORGAN    CLOUDY    43  40  89 S8        29.56F
$$

COZ086-089-092>099-251200-
...SOUTHEAST COLORADO...

CITY           SKY/WX    TMP DP  RH WIND       PRES   REMARKS
PUEBLO         FAIR      49  38  65 N15       29.54R
LA JUNTA       FAIR      50  40  68 N24       29.52R
LAMAR          FAIR      49  40  71 N16G28    29.44R
SPRINGFIELD      N/A     48  32  53 NW8       29.44F
$$



USA.gov is the U.S. government's official web portal to all federal, state and local government web resources and services.